When you browse on this site, cookies collect data to enhance your experience and personalize the content and advertising you see.
Visit our Privacy Policy to learn more. By continuing to use the site, you agree to this use of cookies and data.
  • In Czech Republic
  • List of Countries
  • For 7 days
  • Water Temperature
  • Satellite Maps
  • Weather Map
  • Weather Widgets
  • user-avatar
    Login

    Hourly Weather Bakersfield

    Today, 13 December, Thursday

    Time Temperature Precipitation Wind Pressure Humidity
    00:00 +10°C° 0 mm 1 mps 757 mmHg 73%
    01:00 +9°C° 0 mm 1 mps 757 mmHg 73%
    02:00 +9°C° 0 mm 1 mps 757 mmHg 72%
    03:00 +9°C° 0 mm 1 mps 757 mmHg 71%
    04:00 +9°C° 0 mm 1 mps 757 mmHg 70%
    05:00 +9°C° 0 mm 1 mps 757 mmHg 69%
    06:00 +10°C° 0 mm 1 mps 757 mmHg 68%
    07:00 +10°C° 0 mm 1 mps 758 mmHg 67%
    08:00 +12°C° 0 mm 1 mps 758 mmHg 57%
    09:00 +15°C° 0 mm 1 mps 758 mmHg 48%
    10:00 +18°C° 0 mm 2 mps 758 mmHg 38%
    11:00 +19°C° 0 mm 2 mps 757 mmHg 35%
    12:00 +20°C° 0 mm 2 mps 757 mmHg 33%
    13:00 +21°C° 0 mm 2 mps 756 mmHg 30%
    14:00 +20°C° 0 mm 2 mps 756 mmHg 33%
    15:00 +19°C° 0 mm 2 mps 756 mmHg 36%
    16:00 +19°C° 0 mm 2 mps 755 mmHg 39%
    17:00 +17°C° 0 mm 2 mps 755 mmHg 38%
    18:00 +16°C° 0 mm 2 mps 756 mmHg 37%
    19:00 +15°C° 0 mm 2 mps 756 mmHg 36%
    20:00 +15°C° 0 mm 2 mps 756 mmHg 34%
    21:00 +14°C° 0 mm 3 mps 756 mmHg 33%
    22:00 +14°C° 0 mm 3 mps 756 mmHg 31%
    23:00 +14°C° 0 mm 3 mps 756 mmHg 30%

    Tomorrow, 14 December, Friday

    Time Temperature Precipitation Wind Pressure Humidity
    00:00 +14°C° 0 mm 3 mps 756 mmHg 28%
    01:00 +14°C° 0 mm 3 mps 755 mmHg 27%
    02:00 +14°C° 0 mm 3 mps 755 mmHg 26%
    03:00 +15°C° 0 mm 2 mps 755 mmHg 25%
    04:00 +15°C° 0 mm 2 mps 755 mmHg 24%
    05:00 +15°C° 0 mm 2 mps 755 mmHg 23%
    06:00 +14°C° 0 mm 3 mps 755 mmHg 22%
    07:00 +14°C° 0 mm 3 mps 755 mmHg 22%
    08:00 +17°C° 0 mm 2 mps 755 mmHg 22%
    09:00 +18°C° 0 mm 2 mps 755 mmHg 21%
    10:00 +20°C° 0 mm 2 mps 755 mmHg 21%
    11:00 +20°C° 0 mm 2 mps 754 mmHg 20%
    12:00 +22°C° 0 mm 1 mps 754 mmHg 19%
    13:00 +23°C° 0 mm 1 mps 754 mmHg 17%
    14:00 +22°C° 0 mm 1 mps 753 mmHg 22%
    15:00 +21°C° 0 mm 1 mps 753 mmHg 26%
    16:00 +20°C° 0 mm 1 mps 753 mmHg 31%
    17:00 +19°C° 0 mm 1 mps 753 mmHg 30%
    18:00 +18°C° 0 mm 1 mps 753 mmHg 29%
    19:00 +16°C° 0 mm 1 mps 754 mmHg 28%
    20:00 +15°C° 0 mm 1 mps 754 mmHg 31%
    21:00 +15°C° 0 mm 1 mps 754 mmHg 33%
    22:00 +13°C° 0 mm 0 mps 754 mmHg 35%
    23:00 +13°C° 0 mm 1 mps 753 mmHg 37%

    Day after tomorrow, 15 December, Saturday

    Time Temperature Precipitation Wind Pressure Humidity
    00:00 +13°C° 0 mm 1 mps 753 mmHg 38%
    01:00 +13°C° 0 mm 1 mps 753 mmHg 39%
    02:00 +12°C° 0 mm 1 mps 753 mmHg 41%
    03:00 +11°C° 0 mm 0 mps 753 mmHg 43%
    04:00 +11°C° 0 mm 0 mps 753 mmHg 45%
    05:00 +12°C° 0 mm 1 mps 753 mmHg 43%
    06:00 +12°C° 0 mm 1 mps 753 mmHg 42%
    07:00 +12°C° 0 mm 1 mps 753 mmHg 40%
    08:00 +15°C° 0 mm 1 mps 753 mmHg 37%
    09:00 +17°C° 0 mm 2 mps 753 mmHg 33%
    10:00 +20°C° 0 mm 2 mps 754 mmHg 30%
    11:00 +20°C° 0 mm 2 mps 753 mmHg 29%
    12:00 +21°C° 0 mm 2 mps 753 mmHg 29%
    13:00 +22°C° 0 mm 3 mps 752 mmHg 29%
    14:00 +21°C° 0 mm 2 mps 752 mmHg 34%
    15:00 +21°C° 0 mm 1 mps 752 mmHg 39%
    16:00 +20°C° 0 mm 1 mps 752 mmHg 43%
    17:00 +19°C° 0 mm 1 mps 752 mmHg 43%
    18:00 +17°C° 0 mm 2 mps 752 mmHg 44%
    19:00 +16°C° 0 mm 2 mps 753 mmHg 44%
    20:00 +16°C° 0 mm 2 mps 753 mmHg 40%
    21:00 +16°C° 0 mm 3 mps 753 mmHg 37%
    22:00 +16°C° 0 mm 3 mps 754 mmHg 34%
    23:00 +16°C° 0 mm 3 mps 753 mmHg 34%

    16 December, Sunday

    Time Temperature Precipitation Wind Pressure Humidity
    00:00 +14°C° 0 mm 3 mps 753 mmHg 34%
    01:00 +14°C° 0 mm 3 mps 753 mmHg 34%
    02:00 +14°C° 0 mm 2 mps 753 mmHg 35%
    03:00 +14°C° 0 mm 2 mps 753 mmHg 37%
    04:00 +13°C° 0 mm 1 mps 753 mmHg 38%
    05:00 +13°C° 0 mm 1 mps 753 mmHg 38%
    06:00 +13°C° 0 mm 2 mps 754 mmHg 38%
    07:00 +13°C° 0 mm 2 mps 754 mmHg 38%
    08:00 +16°C° 0 mm 2 mps 754 mmHg 33%
    09:00 +18°C° 0 mm 2 mps 754 mmHg 28%
    10:00 +21°C° 0 mm 2 mps 754 mmHg 22%
    11:00 +23°C° 0 mm 2 mps 754 mmHg 20%
    12:00 +24°C° 0 mm 2 mps 753 mmHg 18%
    13:00 +25°C° 0 mm 2 mps 753 mmHg 17%
    14:00 +24°C° 0 mm 2 mps 753 mmHg 19%
    15:00 +23°C° 0 mm 2 mps 753 mmHg 21%
    16:00 +21°C° 0 mm 2 mps 752 mmHg 24%
    17:00 +20°C° 0 mm 2 mps 753 mmHg 24%
    18:00 +19°C° 0 mm 3 mps 753 mmHg 24%
    19:00 +18°C° 0 mm 3 mps 754 mmHg 24%
    20:00 +17°C° 0 mm 3 mps 754 mmHg 26%
    21:00 +17°C° 0 mm 3 mps 754 mmHg 27%
    22:00 +16°C° 0 mm 3 mps 754 mmHg 29%
    23:00 +16°C° 0 mm 3 mps 754 mmHg 30%

    17 December, Monday

    Time Temperature Precipitation Wind Pressure Humidity
    00:00 +16°C° 0 mm 3 mps 753 mmHg 32%
    01:00 +14°C° 0 mm 3 mps 753 mmHg 34%
    02:00 +14°C° 0.1 mm 3 mps 753 mmHg 38%
    03:00 +14°C° 0.1 mm 3 mps 753 mmHg 43%
    04:00 +15°C° 0.1 mm 2 mps 753 mmHg 47%
    05:00 +14°C° 0.5 mm 2 mps 753 mmHg 53%
    06:00 +13°C° 0.5 mm 3 mps 753 mmHg 58%
    07:00 +13°C° 0.5 mm 3 mps 753 mmHg 63%
    08:00 +14°C° 0.8 mm 2 mps 754 mmHg 65%
    09:00 +14°C° 0.8 mm 1 mps 754 mmHg 66%
    10:00 +14°C° 0.8 mm 1 mps 754 mmHg 68%
    11:00 +15°C° 0.5 mm 1 mps 754 mmHg 65%
    12:00 +15°C° 0.5 mm 2 mps 754 mmHg 62%
    13:00 +16°C° 0.5 mm 2 mps 754 mmHg 60%
    14:00 +15°C° 0.2 mm 2 mps 754 mmHg 60%
    15:00 +15°C° 0.2 mm 2 mps 754 mmHg 61%
    16:00 +15°C° 0.2 mm 2 mps 754 mmHg 62%
    17:00 +14°C° 0 mm 2 mps 754 mmHg 67%
    18:00 +13°C° 0 mm 2 mps 755 mmHg 72%
    19:00 +12°C° 0 mm 1 mps 755 mmHg 76%
    20:00 +12°C° 0 mm 1 mps 755 mmHg 78%
    21:00 +11°C° 0 mm 1 mps 756 mmHg 79%
    22:00 +11°C° 0 mm 1 mps 756 mmHg 81%
    23:00 +11°C° 0 mm 1 mps 756 mmHg 81%

    18 December, Tuesday

    Time Temperature Precipitation Wind Pressure Humidity
    00:00 +11°C° 0 mm 1 mps 756 mmHg 80%
    01:00 +10°C° 0 mm 1 mps 756 mmHg 80%
    02:00 +10°C° 0 mm 1 mps 756 mmHg 80%
    03:00 +10°C° 0 mm 1 mps 756 mmHg 80%
    04:00 +9°C° 0 mm 1 mps 756 mmHg 79%
    05:00 +9°C° 0 mm 1 mps 756 mmHg 80%
    06:00 +9°C° 0 mm 1 mps 757 mmHg 81%
    07:00 +9°C° 0 mm 1 mps 757 mmHg 82%
    08:00 +10°C° 0 mm 1 mps 757 mmHg 76%
    09:00 +12°C° 0 mm 1 mps 757 mmHg 71%
    10:00 +14°C° 0 mm 1 mps 757 mmHg 65%
    11:00 +15°C° 0 mm 1 mps 756 mmHg 63%
    12:00 +15°C° 0 mm 2 mps 756 mmHg 60%
    13:00 +16°C° 0 mm 2 mps 755 mmHg 58%
    14:00 +16°C° 0 mm 2 mps 755 mmHg 61%
    15:00 +15°C° 0 mm 2 mps 755 mmHg 65%
    16:00 +15°C° 0 mm 2 mps 755 mmHg 68%
    17:00 +14°C° 0 mm 2 mps 755 mmHg 73%
    18:00 +13°C° 0 mm 1 mps 755 mmHg 78%
    19:00 +11°C° 0 mm 1 mps 756 mmHg 83%
    20:00 +11°C° 0 mm 1 mps 756 mmHg 83%
    21:00 +11°C° 0 mm 1 mps 756 mmHg 83%
    22:00 +11°C° 0 mm 1 mps 756 mmHg 83%
    23:00 +11°C° 0 mm 1 mps 756 mmHg 82%
    Show more